Location: �clusier
(49.9361°N, 2.7869°E)
Time: 07:48:10
(UTC+00:00)

Terra - Pass Details

Date: 16 June 2021
Orbit: 701 x 703 km, 98.2° (Epoch: 01 August)

Event Time Altitude Azimuth Distance (km) Brightness Sun altitude
Exits shadow 21:05:52 10° 145° (SE) 2,152 3.6 -8.2°
Maximum altitude 21:10:26 53° 70° (ENE) 868 2.2 -8.6°
Drops below altitude 10° 21:15:05 10° 354° (N) 2,184 5.4 -9.1°
Sets 21:17:23 0° 350° (N) 3,107 6.5 -9.3°
